Weather History for KFMN - July, 2014

Change the Weather History Date:

Thursday, July 17, 2014

  Actual Average Record
Temperature  
Mean Temperature 78 °F -  
Max Temperature 93 °F 91 °F 104 °F (2005)
Min Temperature 62 °F 60 °F 55 °F (1992)
Cooling Degree Days 12    
Growing Degree Days 28 (Base 50)    
Moisture  
Dew Point 41 °F    
Average Humidity 34    
Maximum Humidity 72    
Minimum Humidity 4    
Precipitation  
Precipitation 0.00 in - - ()
Sea Level Pressure  
Sea Level Pressure 29.82 in    
Wind  
Wind Speed 10 mph (NNE)    
Max Wind Speed 22 mph    
Max Gust Speed 33 mph    
Visibility 10 miles    
Events      
Averages and records for this station are not official NWS values.
T = Trace of Precipitation, MM = Missing Value Source: NWS Daily Summary

Daily Weather History Graph

Daily Weather History Graph

Search for Another Location

Airport or City:

Trip Planner

Search our weather history database for the weather conditions in past years. The results will help you decide how hot, cold, wet, or windy it might be!

Date:

Astronomy

Jul. 17, 2014 Rise Set
Actual Time 6:07 AM MDT 8:30 PM MDT
Civil Twilight 5:37 AM MDT 9:00 PM MDT
Nautical Twilight 5:00 AM MDT 9:36 PM MDT
Astronomical Twilight 4:20 AM MDT 10:16 PM MDT
Moon No Moon Rise 12:11 PM MDT (7/17)
Length of Visible Light 15h 22m
Length of Day
14h 23m
Waning Gibbous, 65% of the Moon is Illuminated
Jul 17
Waning Gibbous
Jul 18
Last Quarter
Jul 26
New
Aug 3
First Quarter
Aug 10
Full

Hourly Weather History & Observations

Time (MDT) Temp. Dew Point Humidity Pressure Visibility Wind Dir Wind Speed Gust Speed Precip Events Conditions
12:53 AM 70.0 °F 51.1 °F 51% 29.81 in 10.0 mi ESE 10.4 mph - N/A   Clear
1:53 AM 66.9 °F 52.0 °F 59% 29.82 in 10.0 mi East 11.5 mph - N/A   Clear
2:53 AM 66.0 °F 53.1 °F 63% 29.81 in 10.0 mi East 9.2 mph - N/A   Clear
3:53 AM 64.9 °F 52.0 °F 63% 29.81 in 10.0 mi ENE 6.9 mph - N/A   Clear
4:53 AM 62.1 °F 52.0 °F 70% 29.84 in 10.0 mi East 6.9 mph - N/A   Clear
5:53 AM 62.1 °F 53.1 °F 72% 29.86 in 10.0 mi East 6.9 mph - N/A   Clear
6:53 AM 63.0 °F 53.1 °F 70% 29.88 in 10.0 mi East 6.9 mph - N/A   Clear
7:53 AM 66.9 °F 53.1 °F 61% 29.89 in 10.0 mi East 9.2 mph - N/A   Clear
8:53 AM 69.1 °F 53.1 °F 57% 29.91 in 10.0 mi East 3.5 mph - N/A   Clear
9:53 AM 73.0 °F 53.1 °F 49% 29.89 in 10.0 mi SE 4.6 mph - N/A   Clear
10:53 AM 78.1 °F 52.0 °F 40% 29.88 in 10.0 mi Calm Calm - N/A   Clear
11:53 AM 79.0 °F 51.1 °F 38% 29.87 in 10.0 mi Calm Calm - N/A   Clear
12:53 PM 86.0 °F 46.0 °F 25% 29.84 in 10.0 mi WSW 13.8 mph 20.7 mph N/A   Clear
1:53 PM 90.0 °F 39.0 °F 17% 29.80 in 10.0 mi WSW 16.1 mph 27.6 mph N/A   Clear
2:53 PM 91.0 °F 28.0 °F 10% 29.79 in 10.0 mi West 19.6 mph 31.1 mph N/A   Clear
3:53 PM 91.0 °F 32.0 °F 12% 29.77 in 10.0 mi West 16.1 mph 29.9 mph N/A   Clear
4:53 PM 91.9 °F 28.9 °F 11% 29.76 in 10.0 mi WNW 20.7 mph 33.4 mph N/A   Clear
5:53 PM 91.9 °F 28.0 °F 10% 29.74 in 10.0 mi WNW 21.9 mph 29.9 mph N/A   Clear
6:53 PM 91.0 °F 26.1 °F 10% 29.74 in 10.0 mi WNW 19.6 mph 31.1 mph N/A   Clear
7:53 PM 89.1 °F 24.1 °F 9% 29.75 in 10.0 mi West 15.0 mph - N/A   Clear
8:53 PM 82.9 °F 24.1 °F 12% 29.78 in 10.0 mi NNW 6.9 mph - N/A   Clear
9:53 PM 81.0 °F 26.1 °F 13% 29.79 in 10.0 mi NNW 8.1 mph - N/A   Clear
10:53 PM 75.9 °F 27.0 °F 16% 29.81 in 10.0 mi North 6.9 mph - N/A   Clear